Location: 22
(39.7117°N, 89.5929°W)
Time: 06:54:49
(UTC-05:00)

Hubble Space Telescope - Pass Details

Date: 25 April 2026
Orbit: 473 x 476 km, 28.5° (Epoch: 18 May)

Event Time Altitude Azimuth Distance (km) Brightness Sun altitude
Rises 20:14:27 0° 223° (SW) 2,504 4.5 -5.8°
Reaches altitude 10° 20:17:56 10° 189° (S) 1,629 3.1 -6.4°
Maximum altitude 20:19:15 12° 169° (SSE) 1,536 2.8 -6.7°
Drops below altitude 10° 20:20:34 10° 148° (SSE) 1,630 2.7 -6.9°
Enters shadow 20:21:35 - 135° (SE) 1,817 2.9 -7.1°
